| time (UTC) | temp F | wind direction | speed MPH | gust MPH | rain 1hr in | rain 24hr in | rain mn in | humidity % | barometer mb |
| 20260502164002 | 46 | 323 | 3.0 | 9.0 | 0.00 | 0.00 | 0.00 | 53 | 1015.6 |
| 20260502162502 | 45 | 290 | 5.0 | 10.0 | 0.00 | 0.00 | 0.00 | 53 | 1015.6 |
| 20260502161402 | 45 | 279 | 6.0 | 9.0 | 0.00 | 0.00 | 0.00 | 51 | 1015.6 |
| 20260502151502 | 47 | 308 | 4.0 | 10.0 | 0.00 | 0.00 | 0.00 | 46 | 1015.6 |
| 20260502130504 | 41 | 312 | 4.0 | 9.0 | 0.00 | 0.00 | 0.00 | 62 | 1016.3 |
| 20260502122902 | 39 | 345 | 4.0 | 6.0 | 0.00 | 0.00 | 0.00 | 73 | 1016.3 |
| 20260502121502 | 38 | 307 | 3.0 | 7.0 | 0.00 | 0.00 | 0.00 | 75 | 1016.3 |
| 20260502114502 | 36 | 316 | 4.0 | 4.0 | 0.00 | 0.00 | 0.00 | 83 | 1015.9 |
| 20260502113002 | 35 | 220 | 4.0 | 4.0 | 0.00 | 0.00 | 0.00 | 88 | 1016.3 |
| 20260502111502 | 34 | 211 | 2.0 | 3.0 | 0.00 | 0.00 | 0.00 | 92 | 1015.9 |
| 20260502110002 | 32 | 263 | 0.0 | 2.0 | 0.00 | 0.00 | 0.00 | 93 | 1015.9 |
| 20260502104502 | 31 | 229 | 0.0 | 1.0 | 0.00 | 0.00 | 0.00 | 92 | 1015.6 |
| 20260502103002 | 31 | 291 | 0.0 | 0.0 | 0.00 | 0.00 | 0.00 | 91 | 1015.6 |
| 20260502101502 | 31 | 292 | 0.0 | 0.0 | 0.00 | 0.00 | 0.00 | 91 | 1015.6 |
| 20260502091503 | 31 | 266 | 1.0 | 3.0 | 0.00 | 0.00 | 0.00 | 89 | 1015.2 |
| 20260502071402 | 34 | 291 | 1.0 | 4.0 | 0.00 | 0.00 | 0.00 | 84 | 1014.9 |
| 20260502070002 | 34 | 263 | 2.0 | 5.0 | 0.00 | 0.00 | 0.00 | 84 | 1014.9 |
| 20260502064902 | 34 | 305 | 1.0 | 6.0 | 0.00 | 0.00 | 0.00 | 84 | 1014.9 |
| 20260502063502 | 34 | 297 | 1.0 | 2.0 | 0.00 | 0.00 | 0.00 | 84 | 1015.2 |
| 20260502062402 | 34 | 272 | 2.0 | 3.0 | 0.00 | 0.00 | 0.00 | 83 | 1014.9 |
| 20260502061402 | 34 | 311 | 0.0 | 1.0 | 0.00 | 0.00 | 0.00 | 83 | 1014.9 |
| 20260502055902 | 35 | 240 | 0.0 | 2.0 | 0.00 | 0.00 | 0.00 | 81 | 1015.2 |
| 20260502054501 | 35 | 306 | 1.0 | 2.0 | 0.00 | 0.00 | 0.00 | 80 | 1015.2 |
| 20260502053003 | 36 | 354 | 3.0 | 3.0 | 0.00 | 0.00 | 0.00 | 78 | 1015.2 |
| 20260502051502 | 37 | 248 | 1.0 | 3.0 | 0.00 | 0.00 | 0.00 | 76 | 1014.9 |
| 20260502050002 | 37 | 248 | 3.0 | 6.0 | 0.00 | 0.00 | 0.00 | 75 | 1014.9 |
| 20260502045001 | 38 | 282 | 1.0 | 5.0 | 0.00 | 0.00 | 0.00 | 73 | 1014.9 |
| 20260502043502 | 38 | 311 | 1.0 | 5.0 | 0.00 | 0.00 | 0.00 | 72 | 1014.6 |
| 20260502042501 | 39 | 318 | 5.0 | 5.0 | 0.00 | 0.00 | 0.00 | 72 | 1014.6 |
| 20260502040002 | 40 | 340 | 1.0 | 2.0 | 0.00 | 0.00 | 0.00 | 79 | 1014.2 |
| 20260502035501 | 40 | 318 | 0.0 | 2.0 | 0.00 | 0.00 | 0.06 | 78 | 1014.2 |
| 20260502034003 | 41 | 247 | 2.0 | 3.0 | 0.00 | 0.00 | 0.06 | 78 | 1014.2 |
| 20260502031002 | 42 | 329 | 4.0 | 9.0 | 0.00 | 0.00 | 0.06 | 77 | 1014.2 |
| 20260502025502 | 41 | 311 | 4.0 | 5.0 | 0.00 | 0.00 | 0.06 | 81 | 1014.2 |
| 20260502024003 | 41 | 283 | 4.0 | 6.0 | 0.00 | 0.00 | 0.06 | 81 | 1014.2 |
| 20260502022402 | 41 | 236 | 3.0 | 6.0 | 0.00 | 0.00 | 0.06 | 80 | 1014.2 |
| 20260502021002 | 41 | 264 | 2.0 | 4.0 | 0.00 | 0.00 | 0.06 | 80 | 1014.2 |
| 20260502015502 | 42 | 235 | 5.0 | 7.0 | 0.00 | 0.00 | 0.06 | 79 | 1014.2 |
| 20260502014402 | 42 | 243 | 4.0 | 5.0 | 0.00 | 0.00 | 0.06 | 79 | 1013.9 |
| 20260502013003 | 42 | 278 | 4.0 | 7.0 | 0.00 | 0.00 | 0.06 | 79 | 1013.9 |
| 20260502011502 | 42 | 238 | 6.0 | 6.0 | 0.00 | 0.00 | 0.06 | 81 | 1013.9 |
| 20260502010003 | 42 | 297 | 3.0 | 6.0 | 0.00 | 0.00 | 0.06 | 82 | 1013.5 |
| 20260502004902 | 42 | 282 | 2.0 | 6.0 | 0.00 | 0.00 | 0.06 | 82 | 1013.5 |
| 20260502003503 | 43 | 295 | 3.0 | 5.0 | 0.00 | 0.00 | 0.06 | 83 | 1013.2 |
| 20260502002003 | 43 | 257 | 3.0 | 7.0 | 0.00 | 0.00 | 0.06 | 81 | 1013.2 |
| 20260501235001 | 44 | 251 | 4.0 | 4.0 | 0.00 | 0.00 | 0.06 | 77 | 1012.9 |
| 20260501233502 | 45 | 247 | 4.0 | 5.0 | 0.00 | 0.00 | 0.06 | 76 | 1012.5 |
| 20260501232002 | 46 | 326 | 4.0 | 5.0 | 0.00 | 0.00 | 0.06 | 73 | 1012.5 |
| 20260501231002 | 46 | 270 | 1.0 | 7.0 | 0.00 | 0.00 | 0.06 | 71 | 1012.5 |
| 20260501225502 | 48 | 276 | 2.0 | 6.0 | 0.00 | 0.00 | 0.06 | 68 | 1012.5 |
| 20260501224002 | 49 | 273 | 2.0 | 6.0 | 0.00 | 0.00 | 0.06 | 68 | 1012.2 |
| 20260501222501 | 49 | 184 | 3.0 | 4.0 | 0.00 | 0.00 | 0.06 | 68 | 1012.2 |
| 20260501220002 | 49 | 43 | 0.0 | 4.0 | 0.00 | 0.00 | 0.06 | 65 | 1012.2 |
| 20260501214501 | 49 | 251 | 3.0 | 7.0 | 0.00 | 0.00 | 0.06 | 68 | 1012.5 |
| 20260501211502 | 48 | 267 | 3.0 | 6.0 | 0.00 | 0.00 | 0.06 | 70 | 1012.2 |
| 20260501210002 | 47 | 147 | 3.0 | 6.0 | 0.00 | 0.00 | 0.06 | 71 | 1012.2 |
| 20260501204902 | 47 | 302 | 6.0 | 7.0 | 0.00 | 0.00 | 0.06 | 74 | 1012.2 |
| 20260501203402 | 47 | 233 | 7.0 | 8.0 | 0.00 | 0.00 | 0.06 | 74 | 1012.2 |
| 20260501201902 | 47 | 182 | 3.0 | 7.0 | 0.00 | 0.00 | 0.06 | 79 | 1012.2 |
| 20260501200402 | 46 | 223 | 3.0 | 5.0 | 0.00 | 0.00 | 0.06 | 83 | 1012.2 |
| 20260501195002 | 46 | 234 | 4.0 | 5.0 | 0.01 | 0.00 | 0.06 | 84 | 1012.5 |
| 20260501193401 | 45 | 128 | 2.0 | 3.0 | 0.02 | 0.00 | 0.06 | 88 | 1012.9 |
| 20260501192001 | 43 | 20 | 3.0 | 3.0 | 0.02 | 0.00 | 0.06 | 90 | 1012.9 |
| 20260501190502 | 42 | 16 | 3.0 | 3.0 | 0.02 | 0.00 | 0.06 | 90 | 1012.9 |
| 20260501185002 | 42 | 305 | 2.0 | 5.0 | 0.01 | 0.00 | 0.05 | 91 | 1013.2 |
| 20260501183402 | 41 | 352 | 2.0 | 5.0 | 0.00 | 0.00 | 0.04 | 91 | 1013.2 |
| 20260501180902 | 42 | 346 | 3.0 | 5.0 | 0.00 | 0.00 | 0.04 | 91 | 1013.2 |
| 20260501175402 | 42 | 0 | 3.0 | 4.0 | 0.01 | 0.00 | 0.04 | 92 | 1013.5 |
| 20260501174001 | 41 | 35 | 3.0 | 5.0 | 0.01 | 0.00 | 0.04 | 89 | 1013.2 |
| 20260501172402 | 42 | 311 | 2.0 | 3.0 | 0.02 | 0.00 | 0.04 | 88 | 1013.5 |